Location: Pic du Midi - T1M
(42.9366°N, 0.1426°E)
Time: 10:08:22
(UTC+01:00)

X-37B - Pass Details

Date: 20 June 2021
Orbit: 383 x 392 km, 45.0° (Epoch: 01 July)

Event Time Altitude Azimuth Distance (km) Brightness Sun altitude
Exits shadow 03:01:00 19° 290° (WNW) 973 2.5 -18.1°
Maximum altitude 03:03:03 63° 8° (N) 431 1.0 -17.9°
Drops below altitude 10° 03:06:10 10° 91° (E) 1,399 3.8 -17.6°
Sets 03:08:15 0° 95° (E) 2,253 4.8 -17.5°
